| time (UTC) | temp F | wind direction | speed MPH | gust MPH | rain 1hr in | rain 24hr in | rain mn in | humidity % | barometer mb |
| 20260504050514 | 54 | 214 | 0.0 | 0.0 | 0.00 | 0.00 | 0.00 | 84 | 1007.8 |
| 20260504050011 | 54 | 214 | 0.0 | 0.0 | 0.00 | 0.00 | 0.00 | 83 | 1007.9 |
| 20260504045508 | 55 | 215 | 0.0 | 0.0 | 0.00 | 0.00 | 0.00 | 84 | 1007.8 |
| 20260504045003 | 55 | 215 | 0.0 | 0.0 | 0.00 | 0.00 | 0.00 | 82 | 1007.9 |
| 20260504044501 | 55 | 215 | 0.0 | 0.0 | 0.00 | 0.00 | 0.00 | 81 | 1007.9 |
| 20260504043958 | 56 | 215 | 0.0 | 0.0 | 0.00 | 0.00 | 0.00 | 80 | 1008.0 |
| 20260504043455 | 56 | 214 | 0.0 | 0.0 | 0.00 | 0.00 | 0.00 | 78 | 1008.1 |
| 20260504042952 | 54 | 215 | 0.0 | 0.0 | 0.00 | 0.00 | 0.00 | 81 | 1008.3 |
| 20260504042448 | 54 | 215 | 0.0 | 0.0 | 0.00 | 0.00 | 0.00 | 83 | 1008.3 |
| 20260504041945 | 55 | 215 | 0.0 | 0.0 | 0.00 | 0.00 | 0.00 | 82 | 1008.5 |
| 20260504041442 | 55 | 215 | 0.0 | 0.0 | 0.00 | 0.00 | 0.00 | 82 | 1008.4 |
| 20260504040937 | 55 | 215 | 0.0 | 0.0 | 0.00 | 0.00 | 0.00 | 79 | 1008.3 |
| 20260504040436 | 54 | 215 | 0.0 | 0.0 | 0.00 | 0.00 | 0.00 | 82 | 1008.3 |
| 20260504035931 | 54 | 215 | 0.0 | 0.0 | 0.00 | 0.00 | 0.00 | 80 | 1008.2 |
| 20260504035429 | 54 | 215 | 0.0 | 0.0 | 0.00 | 0.00 | 0.00 | 82 | 1008.5 |
| 20260504034925 | 54 | 215 | 0.0 | 0.0 | 0.00 | 0.00 | 0.00 | 81 | 1008.5 |
| 20260504034423 | 54 | 215 | 0.0 | 0.0 | 0.00 | 0.00 | 0.00 | 81 | 1008.5 |
| 20260504033920 | 54 | 215 | 0.0 | 0.0 | 0.00 | 0.00 | 0.00 | 81 | 1008.7 |
| 20260504033418 | 54 | 215 | 0.0 | 0.0 | 0.00 | 0.00 | 0.00 | 80 | 1009.0 |
| 20260504032914 | 55 | 215 | 0.0 | 0.0 | 0.00 | 0.00 | 0.00 | 80 | 1009.1 |
| 20260504032411 | 55 | 215 | 0.0 | 0.0 | 0.00 | 0.00 | 0.00 | 79 | 1009.0 |
| 20260504031908 | 56 | 215 | 0.0 | 0.0 | 0.00 | 0.00 | 0.00 | 78 | 1008.7 |
| 20260504031405 | 56 | 216 | 0.0 | 0.0 | 0.00 | 0.00 | 0.00 | 78 | 1008.8 |
| 20260504030902 | 56 | 216 | 0.0 | 0.0 | 0.00 | 0.00 | 0.00 | 77 | 1008.7 |
| 20260504030359 | 56 | 216 | 0.0 | 0.0 | 0.00 | 0.00 | 0.00 | 77 | 1008.5 |
| 20260504025854 | 57 | 216 | 0.0 | 0.0 | 0.00 | 0.00 | 0.00 | 77 | 1008.7 |
| 20260504025352 | 57 | 216 | 0.0 | 0.0 | 0.00 | 0.00 | 0.00 | 75 | 1008.7 |
| 20260504024848 | 58 | 216 | 0.0 | 0.0 | 0.00 | 0.00 | 0.00 | 75 | 1008.7 |
| 20260504024345 | 59 | 216 | 0.0 | 0.0 | 0.00 | 0.00 | 0.00 | 71 | 1008.8 |
| 20260504023842 | 58 | 216 | 0.0 | 0.0 | 0.00 | 0.00 | 0.00 | 71 | 1008.7 |
| 20260504023339 | 58 | 216 | 0.0 | 0.0 | 0.00 | 0.00 | 0.00 | 72 | 1008.7 |
| 20260504022834 | 59 | 216 | 0.0 | 0.0 | 0.00 | 0.00 | 0.00 | 70 | 1008.7 |
| 20260504022331 | 59 | 216 | 0.0 | 0.0 | 0.00 | 0.00 | 0.00 | 69 | 1009.1 |
| 20260504021828 | 59 | 216 | 0.0 | 0.0 | 0.00 | 0.00 | 0.00 | 69 | 1008.8 |
| 20260504021325 | 60 | 216 | 0.0 | 0.0 | 0.00 | 0.00 | 0.00 | 70 | 1008.8 |
| 20260504020822 | 60 | 217 | 0.0 | 0.0 | 0.00 | 0.00 | 0.00 | 69 | 1008.7 |
| 20260504020319 | 60 | 217 | 0.0 | 0.0 | 0.00 | 0.00 | 0.00 | 69 | 1008.5 |
| 20260504015815 | 60 | 218 | 0.0 | 0.0 | 0.00 | 0.00 | 0.00 | 68 | 1008.5 |
| 20260504015311 | 60 | 218 | 0.0 | 0.0 | 0.00 | 0.00 | 0.00 | 68 | 1008.5 |
| 20260504014808 | 61 | 218 | 0.0 | 0.0 | 0.00 | 0.00 | 0.00 | 67 | 1008.7 |
| 20260504014303 | 61 | 218 | 0.0 | 0.0 | 0.00 | 0.00 | 0.00 | 67 | 1008.8 |
| 20260504013801 | 61 | 218 | 0.0 | 0.0 | 0.00 | 0.00 | 0.00 | 66 | 1008.6 |
| 20260504013259 | 62 | 218 | 0.0 | 0.0 | 0.00 | 0.00 | 0.00 | 66 | 1008.6 |
| 20260504012755 | 62 | 218 | 0.0 | 0.0 | 0.00 | 0.00 | 0.00 | 66 | 1008.5 |
| 20260504012253 | 62 | 218 | 0.0 | 0.0 | 0.00 | 0.00 | 0.00 | 65 | 1008.6 |
| 20260504011750 | 62 | 218 | 0.0 | 0.0 | 0.00 | 0.00 | 0.00 | 65 | 1008.5 |
| 20260504011247 | 63 | 218 | 0.0 | 0.0 | 0.00 | 0.00 | 0.00 | 64 | 1008.4 |
| 20260504010743 | 63 | 218 | 0.0 | 0.0 | 0.00 | 0.00 | 0.00 | 63 | 1008.5 |
| 20260504010238 | 64 | 218 | 0.0 | 0.0 | 0.00 | 0.00 | 0.00 | 62 | 1008.4 |
| 20260504005736 | 64 | 218 | 0.0 | 0.0 | 0.00 | 0.00 | 0.00 | 62 | 1008.4 |
| 20260504005233 | 64 | 218 | 0.0 | 0.0 | 0.00 | 0.00 | 0.00 | 61 | 1008.2 |
| 20260504004730 | 65 | 218 | 0.0 | 0.0 | 0.00 | 0.00 | 0.00 | 60 | 1008.5 |
| 20260504004227 | 65 | 218 | 0.0 | 0.0 | 0.00 | 0.00 | 0.00 | 60 | 1008.3 |
| 20260504003723 | 66 | 218 | 0.0 | 0.0 | 0.00 | 0.00 | 0.00 | 60 | 1008.1 |
| 20260504003221 | 66 | 218 | 0.0 | 0.0 | 0.00 | 0.00 | 0.00 | 58 | 1008.3 |
| 20260504002717 | 67 | 218 | 0.0 | 0.0 | 0.00 | 0.00 | 0.00 | 59 | 1008.4 |
| 20260504002214 | 67 | 211 | 0.0 | 0.0 | 0.00 | 0.00 | 0.00 | 58 | 1008.5 |
| 20260504001712 | 68 | 211 | 0.0 | 0.0 | 0.00 | 0.00 | 0.00 | 56 | 1008.2 |
| 20260504001209 | 68 | 221 | 1.0 | 1.0 | 0.00 | 0.00 | 0.00 | 55 | 1008.6 |
| 20260504000705 | 68 | 232 | 2.0 | 2.0 | 0.00 | 0.00 | 0.00 | 55 | 1008.4 |
| 20260504000204 | 68 | 218 | 0.0 | 0.0 | 0.00 | 0.00 | 0.00 | 55 | 1008.4 |
| 20260503235701 | 68 | 222 | 2.0 | 2.0 | 0.00 | 0.00 | 0.00 | 54 | 1008.6 |
| 20260503235157 | 68 | 227 | 2.0 | 2.0 | 0.00 | 0.00 | 0.00 | 55 | 1008.3 |
| 20260503234655 | 69 | 214 | 0.0 | 1.0 | 0.00 | 0.00 | 0.00 | 54 | 1008.3 |
| 20260503234153 | 68 | 215 | 2.0 | 2.0 | 0.00 | 0.00 | 0.00 | 54 | 1008.4 |
| 20260503233649 | 68 | 224 | 0.0 | 1.0 | 0.00 | 0.00 | 0.00 | 54 | 1008.5 |
| 20260503233145 | 68 | 223 | 3.0 | 5.0 | 0.00 | 0.00 | 0.00 | 53 | 1008.5 |
| 20260503232642 | 69 | 232 | 2.0 | 2.0 | 0.00 | 0.00 | 0.00 | 53 | 1008.4 |
| 20260503232140 | 69 | 231 | 1.0 | 2.0 | 0.00 | 0.00 | 0.00 | 53 | 1008.6 |
| 20260503231638 | 69 | 240 | 3.0 | 3.0 | 0.00 | 0.00 | 0.00 | 52 | 1008.4 |
| 20260503231134 | 69 | 222 | 2.0 | 2.0 | 0.00 | 0.00 | 0.00 | 52 | 1008.6 |
| 20260503230631 | 69 | 215 | 1.0 | 1.0 | 0.00 | 0.00 | 0.00 | 52 | 1008.6 |
| 20260503230128 | 69 | 248 | 3.0 | 5.0 | 0.00 | 0.00 | 0.00 | 52 | 1008.6 |
| 20260503225626 | 69 | 206 | 2.0 | 2.0 | 0.00 | 0.00 | 0.00 | 51 | 1008.4 |
| 20260503225125 | 69 | 227 | 3.0 | 5.0 | 0.00 | 0.00 | 0.00 | 53 | 1008.7 |
| 20260503224623 | 69 | 243 | 3.0 | 3.0 | 0.00 | 0.00 | 0.00 | 52 | 1008.8 |
| 20260503224121 | 69 | 236 | 1.0 | 2.0 | 0.00 | 0.00 | 0.00 | 53 | 1009.0 |
| 20260503223618 | 69 | 251 | 3.0 | 5.0 | 0.00 | 0.00 | 0.00 | 52 | 1009.0 |
| 20260503223114 | 69 | 244 | 3.0 | 3.0 | 0.00 | 0.00 | 0.00 | 52 | 1008.7 |
| 20260503222612 | 70 | 247 | 3.0 | 3.0 | 0.00 | 0.00 | 0.00 | 51 | 1008.4 |
| 20260503222109 | 69 | 219 | 0.0 | 1.0 | 0.00 | 0.00 | 0.00 | 51 | 1008.4 |
| 20260503221608 | 69 | 224 | 1.0 | 1.0 | 0.00 | 0.00 | 0.00 | 53 | 1008.5 |
| 20260503221105 | 69 | 255 | 3.0 | 5.0 | 0.00 | 0.00 | 0.00 | 52 | 1008.5 |
| 20260503220601 | 69 | 256 | 3.0 | 6.0 | 0.00 | 0.00 | 0.00 | 53 | 1008.7 |
| 20260503220058 | 69 | 225 | 3.0 | 3.0 | 0.00 | 0.00 | 0.00 | 53 | 1008.8 |
| 20260503215555 | 69 | 244 | 3.0 | 3.0 | 0.00 | 0.00 | 0.00 | 53 | 1008.7 |
| 20260503215052 | 68 | 229 | 0.0 | 0.0 | 0.00 | 0.00 | 0.00 | 55 | 1008.6 |
| 20260503214550 | 68 | 232 | 0.0 | 0.0 | 0.00 | 0.00 | 0.00 | 54 | 1008.8 |
| 20260503214046 | 68 | 244 | 3.0 | 5.0 | 0.00 | 0.00 | 0.00 | 53 | 1009.1 |
| 20260503213545 | 67 | 220 | 1.0 | 3.0 | 0.00 | 0.00 | 0.00 | 55 | 1009.1 |
| 20260503213041 | 66 | 221 | 0.0 | 0.0 | 0.00 | 0.00 | 0.00 | 57 | 1009.1 |
| 20260503212538 | 67 | 222 | 0.0 | 0.0 | 0.00 | 0.00 | 0.00 | 56 | 1008.8 |
| 20260503212036 | 67 | 222 | 0.0 | 0.0 | 0.00 | 0.00 | 0.00 | 55 | 1008.7 |
| 20260503211533 | 67 | 224 | 1.0 | 1.0 | 0.00 | 0.00 | 0.00 | 54 | 1008.3 |
| 20260503211028 | 67 | 212 | 0.0 | 0.0 | 0.00 | 0.00 | 0.00 | 53 | 1009.0 |
| 20260503210525 | 67 | 221 | 1.0 | 2.0 | 0.00 | 0.00 | 0.00 | 53 | 1009.0 |
| 20260503210021 | 67 | 214 | 1.0 | 1.0 | 0.00 | 0.00 | 0.00 | 54 | 1008.7 |
| 20260503205518 | 67 | 218 | 1.0 | 1.0 | 0.00 | 0.00 | 0.00 | 52 | 1008.7 |
| 20260503205014 | 67 | 225 | 1.0 | 2.0 | 0.00 | 0.00 | 0.00 | 50 | 1009.4 |
| 20260503204512 | 67 | 228 | 0.0 | 1.0 | 0.00 | 0.00 | 0.00 | 51 | 1009.2 |
| 20260503204008 | 66 | 230 | 3.0 | 3.0 | 0.00 | 0.00 | 0.00 | 52 | 1009.8 |
| 20260503203506 | 66 | 210 | 0.0 | 1.0 | 0.00 | 0.00 | 0.00 | 51 | 1009.8 |
| 20260503203002 | 66 | 219 | 0.0 | 0.0 | 0.00 | 0.00 | 0.00 | 50 | 1009.5 |
| 20260503202500 | 66 | 228 | 0.0 | 0.0 | 0.00 | 0.00 | 0.00 | 51 | 1009.2 |
| 20260503201958 | 66 | 248 | 5.0 | 7.0 | 0.00 | 0.00 | 0.00 | 50 | 1009.3 |
| 20260503201456 | 66 | 233 | 2.0 | 3.0 | 0.00 | 0.00 | 0.00 | 52 | 1009.0 |
| 20260503200953 | 66 | 232 | 2.0 | 3.0 | 0.00 | 0.00 | 0.00 | 49 | 1009.3 |
| 20260503200449 | 66 | 213 | 1.0 | 2.0 | 0.00 | 0.00 | 0.00 | 50 | 1010.1 |
| 20260503195946 | 65 | 230 | 2.0 | 2.0 | 0.00 | 0.00 | 0.00 | 50 | 1010.1 |
| 20260503195443 | 66 | 220 | 1.0 | 1.0 | 0.00 | 0.00 | 0.00 | 49 | 1009.8 |
| 20260503194940 | 66 | 208 | 2.0 | 3.0 | 0.00 | 0.00 | 0.00 | 50 | 1009.4 |
| 20260503194437 | 66 | 132 | 3.0 | 3.0 | 0.00 | 0.00 | 0.00 | 48 | 1009.6 |
| 20260503193932 | 66 | 220 | 1.0 | 1.0 | 0.00 | 0.00 | 0.00 | 48 | 1009.9 |
| 20260503193428 | 66 | 221 | 0.0 | 1.0 | 0.00 | 0.00 | 0.00 | 52 | 1010.3 |
| 20260503192923 | 65 | 221 | 1.0 | 1.0 | 0.00 | 0.00 | 0.00 | 49 | 1010.8 |
| 20260503192420 | 66 | 263 | 1.0 | 1.0 | 0.00 | 0.00 | 0.00 | 49 | 1010.9 |
| 20260503191916 | 66 | 230 | 1.0 | 2.0 | 0.00 | 0.00 | 0.00 | 49 | 1011.0 |
| 20260503191414 | 67 | 238 | 3.0 | 3.0 | 0.00 | 0.00 | 0.00 | 47 | 1009.9 |
| 20260503190910 | 67 | 189 | 4.0 | 6.0 | 0.00 | 0.00 | 0.00 | 45 | 1009.8 |
| 20260503190408 | 65 | 236 | 1.0 | 2.0 | 0.00 | 0.00 | 0.00 | 48 | 1010.1 |
| 20260503185904 | 65 | 207 | 2.0 | 2.0 | 0.00 | 0.00 | 0.00 | 48 | 1010.9 |
| 20260503185400 | 65 | 259 | 4.0 | 6.0 | 0.00 | 0.00 | 0.00 | 46 | 1011.3 |
| 20260503184900 | 65 | 229 | 3.0 | 3.0 | 0.00 | 0.00 | 0.00 | 48 | 1010.6 |
| 20260503184356 | 66 | 123 | 4.0 | 5.0 | 0.00 | 0.00 | 0.00 | 47 | 1010.0 |
| 20260503183852 | 65 | 213 | 2.0 | 3.0 | 0.00 | 0.00 | 0.00 | 47 | 1010.6 |
| 20260503183349 | 66 | 229 | 3.0 | 3.0 | 0.00 | 0.00 | 0.00 | 46 | 1010.3 |
| 20260503182847 | 66 | 214 | 2.0 | 3.0 | 0.00 | 0.00 | 0.00 | 46 | 1010.7 |
| 20260503182346 | 66 | 205 | 1.0 | 2.0 | 0.00 | 0.00 | 0.00 | 47 | 1011.1 |
| 20260503181842 | 66 | 258 | 3.0 | 5.0 | 0.00 | 0.00 | 0.00 | 45 | 1011.1 |
| 20260503181339 | 67 | 207 | 3.0 | 3.0 | 0.00 | 0.00 | 0.00 | 45 | 1011.2 |
| 20260503180836 | 65 | 231 | 2.0 | 2.0 | 0.00 | 0.00 | 0.00 | 49 | 1010.9 |
| 20260503180334 | 65 | 223 | 1.0 | 2.0 | 0.00 | 0.00 | 0.00 | 49 | 1011.7 |
| 20260503175830 | 66 | 226 | 1.0 | 2.0 | 0.00 | 0.00 | 0.00 | 46 | 1011.7 |
| 20260503175328 | 66 | 260 | 2.0 | 3.0 | 0.00 | 0.00 | 0.00 | 46 | 1011.4 |
| 20260503174823 | 66 | 217 | 3.0 | 6.0 | 0.00 | 0.00 | 0.00 | 45 | 1011.4 |
| 20260503174322 | 67 | 203 | 1.0 | 1.0 | 0.00 | 0.00 | 0.00 | 45 | 1011.7 |
| 20260503173817 | 68 | 208 | 2.0 | 5.0 | 0.00 | 0.00 | 0.00 | 45 | 1011.5 |
| 20260503173314 | 69 | 238 | 2.0 | 6.0 | 0.00 | 0.00 | 0.00 | 47 | 1011.8 |
| 20260503172810 | 67 | 169 | 3.0 | 3.0 | 0.00 | 0.00 | 0.00 | 45 | 1012.1 |
| 20260503172308 | 66 | 228 | 2.0 | 2.0 | 0.00 | 0.00 | 0.00 | 47 | 1012.0 |
| 20260503171804 | 66 | 253 | 5.0 | 8.0 | 0.00 | 0.00 | 0.00 | 45 | 1012.4 |
| 20260503171301 | 67 | 219 | 3.0 | 5.0 | 0.00 | 0.00 | 0.00 | 44 | 1012.5 |
| 20260503170758 | 66 | 183 | 5.0 | 7.0 | 0.00 | 0.00 | 0.00 | 45 | 1012.6 |
| 20260503170254 | 66 | 227 | 4.0 | 6.0 | 0.00 | 0.00 | 0.00 | 46 | 1012.6 |
| 20260503160217 | 61 | 201 | 3.0 | 3.0 | 0.00 | 0.00 | 0.00 | 53 | 1013.1 |
| 20260503150647 | 58 | 220 | 1.0 | 1.0 | 0.00 | 0.00 | 0.00 | 57 | 1014.7 |
| 20260503150143 | 59 | 230 | 1.0 | 2.0 | 0.00 | 0.00 | 0.00 | 57 | 1014.8 |
| 20260503140107 | 57 | 204 | 3.0 | 3.0 | 0.00 | 0.00 | 0.00 | 57 | 1016.0 |
| 20260503131037 | 51 | 214 | 0.0 | 0.0 | 0.00 | 0.00 | 0.00 | 69 | 1016.8 |
| 20260503130534 | 51 | 219 | 1.0 | 1.0 | 0.00 | 0.00 | 0.00 | 69 | 1016.6 |
| 20260503110424 | 43 | 214 | 0.0 | 0.0 | 0.00 | 0.00 | 0.00 | 82 | 1016.5 |
| 20260503090310 | 45 | 211 | 0.0 | 0.0 | 0.00 | 0.00 | 0.00 | 76 | 1017.1 |
| 20260503081237 | 45 | 215 | 0.0 | 0.0 | 0.00 | 0.00 | 0.00 | 76 | 1017.0 |
| 20260503080732 | 45 | 215 | 0.0 | 0.0 | 0.00 | 0.00 | 0.00 | 76 | 1016.9 |
| 20260503080230 | 44 | 221 | 0.0 | 0.0 | 0.00 | 0.00 | 0.00 | 77 | 1017.3 |
| 20260503072706 | 44 | 213 | 0.0 | 0.0 | 0.00 | 0.00 | 0.00 | 77 | 1017.4 |
| 20260503072203 | 43 | 213 | 0.0 | 0.0 | 0.00 | 0.00 | 0.00 | 77 | 1017.4 |
| 20260503071700 | 43 | 213 | 0.0 | 0.0 | 0.00 | 0.00 | 0.00 | 77 | 1017.3 |
| 20260503071157 | 43 | 213 | 0.0 | 0.0 | 0.00 | 0.00 | 0.00 | 77 | 1017.6 |
| 20260503070653 | 43 | 213 | 0.0 | 0.0 | 0.00 | 0.00 | 0.00 | 77 | 1017.6 |
| 20260503070152 | 43 | 213 | 0.0 | 0.0 | 0.00 | 0.00 | 0.00 | 76 | 1017.5 |